星链-1571 (STARLINK-1571 )

导读 | 豆包AI

STARLINK-1571是美国太空探索技术公司(SpaceX)星链(Starlink)星座的其中一颗卫星,于2020年8月7日发射升空。星链星座旨在为全球提供高速互联网服务,该卫星运行在近地轨道,属于SpaceX批量部署的卫星之一,服务于全球卫星互联网的组网,为偏远地区等提供网络接入支持,推进全球互联网覆盖。

基本信息
目录编号:
46081
目录名称:
STARLINK-1571
国际标识:
2020-055BG
轨道中心:
EARTH
卫星名称:
星链-1571
卫星全名:
星链-1571 (STARLINK-1571 )
卫星状态:
已陨落 最后检测时间 2025-02-22
发射日期:
2020-08-07 UTC
国别 :
美国 (US)
星等 :
--
轨道信息
数据来源 国际轨道数据
星历时间: 2025-02-22T08:42:52+0800
轨道信息已过期385天
半长轴: 6535.746km
偏心率: 0.0013991
轨道倾角: 53.045°
近地点辐角 156.958°
升交点赤经 345.188°
平近点角 309.625°
近地点: 148.466km
远地点: 166.756km
周期: 87.640分钟
每日圈数: 16.430852
详细信息
固有亮度:
5
最大亮度:
2.5
卫星平台:
Starlink V1.0
覆盖范围:
全球
运营商:
太空探索技术公司
运营商所在国:
美国
制造商(研发单位):
太空探索技术公司
制造商所在国:
美国
使用方式:
暂无
卫星简介
星链(Starlink)计划是由太空探索技术公司(SpaceX)提出的一个巨型低轨卫星互联网星座项目,计划在2019年至2024年间在太空搭建由约1.2万颗卫星组成的“星链”网络,其中1584颗将部署在地球上空550千米处的近地轨道,并从2020年开始工作。该卫星仍在工作。